Tracking 18032 objects as of 27-March-2017
HD Live streaming from Space Station
objects crossing your sky now

COSMOS 2490

Track COSMOS 2490 now!
10-day predictions
COSMOS 2490 is classified as:


NORAD ID: 39485
Int'l Code: 2013-076C
Perigee: 1,485.7 km
Apogee: 1,517.4 km
Inclination: 82.5 °
Period: 115.9 minutes
Semi major axis: 7872 km
RCS: Unknown
Launch date: December 25, 2013
Source: Commonwealth of Independent States (former USSR) (CIS)
Launch site: PLESETSK MISSILE AND SPACE COMPLEX (PKMTR)

COSMOS 2488 is a Russian military satellite apparently designed to relay messages between military users posted in remote areas.
Your satellite tracking list
Your tracking list is empty





NASA's NSSDC Master Catalog

Two Line Element Set (TLE):
1 39485U 13076C   17084.80534295 +.00000010 +00000-0 +00000-0 0  9993
2 39485 082.4800 109.0468 0020122 256.9024 102.9808 12.42881714147408
Source of the keplerian elements: AFSPC